This is the latest recevied weather packets stored in our database for station/object W9WRP. If no packets are shown the sender has not sent any weather packets the latest 10 day(s).
| Time | Temp. | Humidity | Pressure | Rain* | Wind** | Luminosity | Snow |
|---|---|---|---|---|---|---|---|
| 1788139760 | 37.22° C | 28% | 1010.5 hPa | 0 mm | - | 11 W/m² | - |
| 1788139455 | 37.78° C | 29% | 1010.8 hPa | 0 mm | - | 15 W/m² | - |
| 1788139155 | 37.78° C | 29% | 1010.7 hPa | 0 mm | - | 21 W/m² | - |
| 1788138850 | 37.78° C | 29% | 1010.7 hPa | 0 mm | - | 29 W/m² | - |
| 1788138545 | 37.78° C | 29% | 1010.8 hPa | 0 mm | - | 23 W/m² | - |
| 1788138240 | 38.33° C | 29% | 1011 hPa | 0 mm | - | 28 W/m² | - |
| 1788137936 | 38.89° C | 29% | 1010.8 hPa | 0 mm | - | 54 W/m² | - |
| 1788137631 | 38.89° C | 29% | 1011.2 hPa | 0 mm | - | 53 W/m² | - |
| 1788137326 | 38.89° C | 28% | 1011.1 hPa | 0 mm | - | 65 W/m² | - |
| 1788137022 | 38.89° C | 28% | 1011 hPa | 0 mm | - | 60 W/m² | - |
| 1788136718 | 38.89° C | 29% | 1011.2 hPa | 0 mm | - | 69 W/m² | - |
| 1788136414 | 39.44° C | 27% | 1011.1 hPa | 0 mm | - | 94 W/m² | - |
| 1788136113 | 39.44° C | 27% | 1011.1 hPa | 0 mm | - | 78 W/m² | - |
| 1788135812 | 40° C | 28% | 1011.2 hPa | 0 mm | - | 127 W/m² | - |
| 1788135508 | 40° C | 27% | 1011 hPa | 0 mm | - | 129 W/m² | - |
| 1788135203 | 40° C | 27% | 1011.2 hPa | 0 mm | - | 94 W/m² | - |
| 1788134901 | 40° C | 27% | 1011.3 hPa | 0 mm | - | 152 W/m² | - |
| 1788134601 | 40° C | 27% | 1011.2 hPa | 0 mm | - | 176 W/m² | - |
| 1788134299 | 38.89° C | 28% | 1011.3 hPa | 0 mm | - | 160 W/m² | - |
| 1788133994 | 38.89° C | 28% | 1011.5 hPa | 0 mm | - | 50 W/m² | - |
| 1788133689 | 40° C | 26% | 1011.5 hPa | 0 mm | - | 95 W/m² | - |
| 1788133385 | 40° C | 26% | 1011.6 hPa | 0 mm | - | 90 W/m² | - |
| 1788133081 | 40.56° C | 26% | 1011.4 hPa | 0 mm | - | 72 W/m² | - |
| 1788132776 | 40° C | 26% | 1011.4 hPa | 0 mm | - | 218 W/m² | - |
| 1788132471 | 39.44° C | 26% | 1011.3 hPa | 0 mm | - | 66 W/m² | - |
* Rain latest hour (hover to see other rain measurements)
** Current wind speed in m/s (hover to see current wind gust speed)